Home > Weather > Tofol > Past weeks

Flag for Micronesia Past Weather in Tofol, Kosrae, Micronesia — Yesterday and Last 2 Weeks

Now
82 °F

Mostly cloudy.


Feels Like: 90 °F
Forecast: 80 / 85 °F
Wind: 8 mph from Northeast

Location: Pohnpei

Current Time: Jun 26, 2016 at 3:41:42 PM

Latest Report: Jun 26, 2016 at 2:53 PM


Visibility: 15 mi

Pressure: 29.82 "Hg

Humidity: 84%

Dew Point: 77 °F

Location of TofolLocation

Past Weather in Tofol — Graph

°F

Tofol Temperature Yesterday

Maximum temperature yesterday: 82 °F (at 7:52 PM)
Minimum temperature yesterday: 76 °F (at 2:54 AM)
Average temperature yesterday: 79 °F

High & Low Weather Summary for the Past Weeks

 TemperatureHumidityPressure
High90 °F (Jun 13, 10:51 AM)98% (Jun 11, 11:53 PM)29.94 "Hg (Jun 11, 11:53 PM)
Low76 °F (Jun 13, 1:50 AM)66% (Jun 16, 1:55 PM)29.74 "Hg (Jun 23, 3:50 PM)
Average82 °F85%29.84 "Hg
* Reported Jun 11 1:52 PM — Jun 26 1:52 PM, Tofol, Weather by CustomWeather, © 2016

Note: Actual official high and low records may vary slightly from our data, if they occured in-between our weather recording intervals... More about our weather records

Advertising

Tofol Weather History for the Previous 24 Hours

Scroll right to see more
 ConditionsComfort  
Time TempWeatherWind HumidityBarometerVisibility
1:52 PM
Sun, Jun 26
80 °FMostly cloudy.9 mph88%29.83 "Hg15 mi
1:03 PM79 °FSprinkles. Mostly cloudy.7 mph94%29.85 "Hg7 mi
12:52 PM79 °FLots of rain. More clouds than sun.14 mph91%29.85 "Hg2 mi
11:50 AM87 °FBroken clouds.9 mph73%29.86 "Hg15 mi
10:52 AM87 °FBroken clouds.8 mph73%29.87 "Hg15 mi
9:53 AM85 °FBroken clouds.5 mph76%29.89 "Hg15 mi
8:52 AM85 °FPartly sunny.10 mph74%29.88 "Hg15 mi
7:53 AM85 °FBroken clouds.9 mph77%29.86 "Hg15 mi
6:52 AM83 °FBroken clouds.6 mph76%29.85 "Hg15 mi
5:54 AM82 °FOvercast.9 mph79%29.85 "Hg15 mi
4:54 AM81 °FOvercast.7 mph83%29.83 "Hg15 mi
3:53 AM78 °FOvercast.5 mph90%29.83 "Hg15 mi
12:52 AM81 °FMostly cloudy.3 mph83%29.80 "Hg15 mi
11:53 PM
Sat, Jun 25
81 °FMostly cloudy.9 mph84%29.86 "Hg15 mi
10:53 PM78 °FSprinkles. Mostly cloudy.9 mph90%29.89 "Hg11 mi
9:52 PM82 °FMostly cloudy.9 mph84%29.88 "Hg15 mi
8:50 PM82 °FMostly cloudy.14 mph84%29.87 "Hg15 mi
7:52 PM82 °FMostly cloudy.5 mph84%29.85 "Hg15 mi
6:51 PM81 °FMostly cloudy.6 mph83%29.83 "Hg13 mi
5:52 PM81 °FMostly cloudy.3 mph83%29.82 "Hg15 mi
4:53 PM81 °FMostly cloudy.3 mph81%29.81 "Hg13 mi
3:53 PM81 °FMostly cloudy.3 mph86%29.80 "Hg13 mi
Weather by CustomWeather, © 2016

See weather overviewHow to use our weather pages